This demonstration page uses our WeatherBlox Daily Observations layout. Learn more.

Left ArrowRight Arrow

Hourly Observations for February 8, 2019

Temp ( °F °C ) Dew Point ( °F °C ) Humidity (%) Winds ( mph kmh ) Pressure ( in mb ) Visibility ( mi km ) Precip ( " mm )
12:52 am 00:52 Clear 2 -16.7 -10 -23.3 57 57 NW 16 26 30.55 1035 10 16 0.00 0.00
1:52 am 01:52 Clear 1 -17.2 -10 -23.3 59 59 NW 12 19 30.57 1035 10 16 0.00 0.00
2:52 am 02:52 Clear 0 -17.8 -10 -23.3 62 62 WNW 10 17 30.60 1036 10 16 0.00 0.00
3:52 am 03:52 Clear 0 -17.8 -10 -23.3 62 62 WNW 12 19 30.62 1037 10 16 0.00 0.00
4:52 am 04:52 Clear -1 -18.3 -11 -23.9 62 62 NW 14 22 30.63 1037 10 16 0.00 0.00
5:52 am 05:52 Clear -1 -18.3 -12 -24.4 59 59 NW 13 20 30.66 1038 10 16 0.00 0.00
6:52 am 06:52 Clear -2 -18.9 -12 -24.4 62 62 NW 13 20 30.69 1039 10 16 0.00 0.00
7:52 am 07:52 Sunny -2 -18.9 -12 -24.4 62 62 NW 8 13 30.72 1040 10 16 0.00 0.00
8:52 am 08:52 Sunny 0 -17.8 -11 -23.9 59 59 NW 14 22 30.74 1041 10 16 0.00 0.00
9:52 am 09:52 Sunny 3 -16.1 -11 -23.9 51 51 NW 8 13 30.76 1042 10 16 0.00 0.00
10:52 am 10:52 Sunny 6 -14.4 -9 -22.8 49 49 N 9 15 30.77 1042 10 16 0.00 0.00
11:52 am 11:52 Sunny 9 -12.8 -8 -22.2 46 46 NNE 5 7 30.78 1042 10 16 0.00 0.00
12:52 pm 12:52 Sunny 10 -12.2 -6 -21.1 48 48 NNE 3 6 30.77 1042 10 16 0.00 0.00
1:52 pm 13:52 Mostly Sunny 12 -11.1 -6 -21.1 44 44 Calm 30.76 1042 10 16 0.00 0.00
2:52 pm 14:52 Mostly Sunny 13 -10.6 -5 -20.6 44 44 VRB 3 6 30.74 1041 10 16 0.00 0.00
3:52 pm 15:52 Partly Cloudy 14 -10 -5 -20.6 42 42 Calm 30.74 1041 10 16 0.00 0.00
4:52 pm 16:52 Cloudy 15 -9.4 -6 -21.1 38 38 Calm 30.73 1041 10 16 0.00 0.00
5:52 pm 17:52 Cloudy 13 -10.6 -2 -18.9 51 51 SSE 8 13 30.73 1041 10 16 0.00 0.00
6:52 pm 18:52 Cloudy 11 -11.7 -2 -18.9 55 55 SSE 12 19 30.76 1042 10 16 0.00 0.00
7:52 pm 19:52 Partly Cloudy 10 -12.2 -2 -18.9 58 58 SE 12 19 30.79 1043 10 16 0.00 0.00
8:52 pm 20:52 Mostly Clear 8 -13.3 -3 -19.4 60 60 SSE 8 13 30.82 1044 10 16 0.00 0.00
9:52 pm 21:52 Mostly Cloudy 9 -12.8 -3 -19.4 58 58 SE 8 13 30.82 1044 10 16 0.00 0.00
10:52 pm 22:52 Mostly Cloudy 9 -12.8 -4 -20 55 55 ESE 10 17 30.81 1043 10 16 0.00 0.00
11:52 pm 23:52 Cloudy 8 -13.3 -4 -20 57 57 SE 8 13 30.79 1043 10 16 0.00 0.00

Powered by AerisWeather